Kiana, AK

2:23 AM AKST on November 24, 2017 (GMT -0900)
Baker Memorial

Weather History for PAIK - January, 2013

Change the Weather History Date:

Sunday, January 20, 2013

  Actual Average (PASK) Record (PASK)
Temperature  
Mean Temperature 10 °F -  
Max Temperature 16 °F 1 °F 37 °F (2008)
Min Temperature 3 °F -8 °F -45 °F (1999)
Degree Days  
Heating Degree Days 56    
Moisture  
Dew Point 5 °F    
Average Humidity 73    
Maximum Humidity 85    
Minimum Humidity 51    
Precipitation  
Precipitation 0.00 in - - ()
Sea Level Pressure  
Sea Level Pressure 30.20 in    
Wind  
Wind Speed 13 mph (East)    
Max Wind Speed 20 mph    
Max Gust Speed 36 mph    
Visibility 9 miles    
Events Snow    
Averages and records for this station are not official NWS values.
T = Trace of Precipitation, MM = Missing Value Source: NWS Daily Summary

Daily Weather History Graph

Daily Weather History Graph

Search for Another Location

Airport or City:

Trip Planner

Search our weather history database for the weather conditions in past years. The results will help you decide how hot, cold, wet, or windy it might be!

Date:

Astronomy

Jan. 20, 2013 Rise Set
Actual Time 11:31 AM AKST 4:15 PM AKST
Civil Twilight 10:11 AM AKST 5:34 PM AKST
Nautical Twilight 9:00 AM AKST 6:46 PM AKST
Astronomical Twilight 7:56 AM AKST 7:50 PM AKST
Moon 11:32 AM AKST (1/20) 6:00 AM AKST (1/20)
Length of Visible Light 7h 22m
Length of Day
4h 44m
Waxing Gibbous, 67% of the Moon is Illuminated
Jan 20
Waxing Gibbous
Jan 26
Full
Feb 3
Last Quarter
Feb 9
New
Feb 17
First Quarter

Hourly Weather History & Observations

Time (AKST) Temp. Windchill Dew Point Humidity Pressure Visibility Wind Dir Wind Speed Gust Speed Precip Events Conditions
12:01 AM 3.9 °F -11.3 °F -6.0 °F 64% 30.32 in 10.0 mi East 10.4 mph 17.3 mph N/A   Overcast
1:01 AM 6.1 °F -5.6 °F -5.1 °F 60% 30.30 in 10.0 mi East 6.9 mph - N/A   Overcast
2:01 AM 5.0 °F -5.6 °F -5.1 °F 63% 30.30 in 10.0 mi East 5.8 mph - N/A   Overcast
3:01 AM 6.1 °F -7.8 °F -4.0 °F 63% 30.28 in 10.0 mi East 9.2 mph - N/A   Overcast
4:01 AM 7.0 °F -4.5 °F -2.9 °F 64% 30.27 in 10.0 mi East 6.9 mph - N/A   Overcast
5:01 AM 10.9 °F -4.1 °F -2.0 °F 56% 30.23 in 10.0 mi East 12.7 mph 18.4 mph N/A   Overcast
6:01 AM 10.9 °F -3.4 °F -2.0 °F 56% 30.22 in 10.0 mi East 11.5 mph 19.6 mph N/A   Overcast
7:01 AM 12.0 °F -6.0 °F -2.9 °F 51% 30.20 in 10.0 mi ENE 19.6 mph 24.2 mph N/A   Overcast
8:01 AM 12.0 °F -2.0 °F -2.9 °F 51% 30.21 in 10.0 mi East 11.5 mph 26.5 mph N/A   Overcast
8:39 AM 10.4 °F -6.0 °F 1.4 °F 67% 30.07 in 5.0 mi ENE 15.0 mph 26.5 mph 0.00 in Snow Light Snow
9:01 AM 10.0 °F -5.9 °F 6.1 °F 84% 30.20 in 3.0 mi ENE 13.8 mph 25.3 mph 0.00 in Snow Light Snow
9:45 AM 10.4 °F -5.4 °F 6.8 °F 85% 30.06 in 8.0 mi East 13.8 mph 23.0 mph 0.00 in Snow Light Snow
10:01 AM 12.0 °F -3.4 °F 7.0 °F 80% 30.20 in 9.0 mi East 13.8 mph 25.3 mph 0.00 in Snow Light Snow
10:43 AM 12.2 °F -5.3 °F 8.6 °F 85% 30.07 in 4.0 mi ENE 18.4 mph 26.5 mph 0.00 in Snow Light Snow
11:01 AM 12.0 °F -4.0 °F 7.0 °F 80% 30.21 in 5.0 mi East 15.0 mph 25.3 mph 0.00 in Snow Light Snow
11:46 AM 12.2 °F -4.3 °F 6.8 °F 79% 30.06 in 7.0 mi East 16.1 mph 35.7 mph 0.00 in Snow Light Snow
12:01 PM 12.0 °F -5.1 °F 7.0 °F 80% 30.20 in 9.0 mi East 17.3 mph 25.3 mph 0.00 in Snow Light Snow
1:01 PM 12.0 °F -5.6 °F 8.1 °F 84% 30.18 in 9.0 mi East 18.4 mph 31.1 mph 0.00 in Snow Light Snow
2:01 PM 12.9 °F -2.2 °F 8.1 °F 81% 30.19 in 9.0 mi East 13.8 mph 19.6 mph 0.00 in Snow Light Snow
3:01 PM 14.0 °F -3.4 °F 9.0 °F 80% 30.18 in 9.0 mi East 19.6 mph 27.6 mph 0.00 in Snow Light Snow
4:01 PM 15.1 °F -1.1 °F 9.0 °F 77% 30.19 in 10.0 mi ENE 17.3 mph 25.3 mph 0.00 in   Overcast
5:01 PM 16.0 °F 0.6 °F 10.0 °F 77% 30.21 in 9.0 mi East 16.1 mph 28.8 mph 0.00 in Snow Light Snow
5:21 PM 15.8 °F 1.4 °F 10.4 °F 79% 30.07 in 8.0 mi East 13.8 mph 20.7 mph 0.00 in Snow Light Snow
5:50 PM 15.8 °F -0.6 °F 10.4 °F 79% 30.06 in 9.0 mi East 18.4 mph 28.8 mph 0.00 in Snow Light Snow
6:01 PM 15.1 °F -2.0 °F 10.0 °F 80% 30.19 in 9.0 mi East 19.6 mph 31.1 mph 0.00 in Snow Light Snow
7:01 PM 16.0 °F 0.6 °F 10.0 °F 77% 30.22 in 9.0 mi East 16.1 mph 29.9 mph 0.00 in Snow Light Snow
8:01 PM 15.1 °F -1.1 °F 10.0 °F 80% 30.22 in 9.0 mi ENE 17.3 mph 24.2 mph 0.00 in Snow Light Snow
9:01 PM 16.0 °F 1.7 °F 10.0 °F 77% 30.25 in 9.0 mi East 13.8 mph 21.9 mph 0.00 in Snow Light Snow
10:01 PM 16.0 °F 1.1 °F 9.0 °F 74% 30.25 in 9.0 mi East 15.0 mph 28.8 mph 0.00 in Snow Light Snow
11:01 PM 16.0 °F 1.7 °F 9.0 °F 74% 30.27 in 10.0 mi East 13.8 mph 19.6 mph 0.00 in   Overcast